Date String (YYYY-MM-DD hh:mm:ss) UTC,Instrument flags,absolute air pressure of the measurement (hPa),sample flow rate (lpm),inlet stack bypass flow (lpm),air temperature of the measurement (°C),ambient temperature measured by the external sensor (°C),aerosol sample conditioner tube jacket temperature (°C),OPC LED temperature (°C),internal box temperature (°C),relative humidity of the measurement (%),span deviation,mass concentration of particles derived from Lorenz-Mie calculation of OPC scattering (μg/m³),mass concentration of particles derived from Lorenz-Mie calculation of OPC scattering (μg/m³),mass concentration of particles derived from Lorenz-Mie calculation of OPC scattering (μg/m³)
DateTimeUTC,F1_M11,P_M11,Q1_M11,Q2_M11,T1_M11,T2_M11,T3_M11,T4_M11,T5_M11,U1_M11,ZSPAN_M11,X0_M11,X2_M11,X1_M11
2024-01-10 08:00:00,SystemResetWarning,0813.1,5.00,000.00,018.8,018.7,000.0,027.2,020.7,14.3,0000.0,0001.56,0000.61,0000.35
2024-01-10 08:01:00,SystemResetWarning,0813.1,4.99,000.00,018.9,018.7,000.0,027.2,020.4,14.2,0000.0,0001.60,0000.64,0000.36
2024-01-10 08:02:00,SystemResetWarning,0813.2,4.99,000.00,018.9,018.6,000.0,027.2,020.2,14.0,0000.0,0001.52,0000.64,0000.36
2024-01-10 08:03:00,SystemResetWarning,0813.1,5.00,000.00,018.8,018.4,000.0,027.1,020.0,13.9,0000.0,0001.66,0000.64,0000.36
2024-01-10 08:04:00,SystemResetWarning,0813.1,5.00,000.00,018.8,018.1,000.0,027.2,020.0,13.9,0000.0,0002.00,0000.63,0000.35
2024-01-10 08:05:00,SystemResetWarning,0813.1,5.00,000.00,018.8,017.9,000.0,027.2,020.0,13.9,0000.0,0001.81,0000.62,0000.35
2024-01-10 08:06:00,SystemResetWarning,0813.2,5.00,000.00,018.8,017.7,000.0,027.2,020.0,13.9,0000.0,0001.81,0000.63,0000.36
2024-01-10 08:07:00,SystemResetWarning,0813.2,5.00,000.00,018.7,017.6,000.0,027.2,020.0,13.9,0000.0,0001.84,0000.66,0000.36
2024-01-10 08:08:00,SystemResetWarning,0813.2,5.00,000.00,018.7,017.5,000.0,027.2,020.0,13.9,0000.0,0001.88,0000.68,0000.37
2024-01-10 08:09:00,SystemResetWarning,0813.2,5.00,000.00,018.7,017.4,000.0,027.2,020.0,13.9,0000.0,0001.77,0000.68,0000.36
2024-01-10 08:10:00,SystemResetWarning,0813.2,4.99,000.00,018.7,017.4,000.0,027.2,020.0,13.9,0000.0,0001.77,0000.69,0000.36
2024-01-10 08:11:00,SystemResetWarning,0813.2,5.00,000.00,018.7,017.3,000.0,027.2,020.0,13.8,0000.0,0001.80,0000.70,0000.36
2024-01-10 08:12:00,SystemResetWarning,0813.2,5.00,000.00,018.7,017.3,000.0,027.2,020.0,13.8,0000.0,0001.78,0000.66,0000.35
2024-01-10 08:13:00,SystemResetWarning,0813.2,5.00,000.00,018.7,017.3,000.0,027.2,020.0,13.8,0000.0,0002.13,0000.67,0000.35
2024-01-10 08:14:00,SystemResetWarning,0813.2,5.00,000.00,018.7,017.3,000.0,027.2,020.0,13.7,0000.0,0002.10,0000.68,0000.34
2024-01-10 08:15:00,SystemResetWarning,0813.2,5.01,000.00,018.7,017.2,000.0,027.2,020.0,13.7,0000.0,0001.63,0000.68,0000.34
2024-01-10 08:16:00,SystemResetWarning,0813.2,5.01,000.00,018.7,017.2,000.0,027.2,020.0,13.6,0000.0,0001.61,0000.68,0000.34
2024-01-10 08:17:00,SystemResetWarning,0813.2,5.00,000.00,018.7,017.2,000.0,027.2,020.0,13.5,0000.0,0001.51,0000.65,0000.34
2024-01-10 08:18:00,SystemResetWarning,0813.2,4.99,000.00,018.6,017.1,000.0,027.2,020.0,13.4,0000.0,0001.49,0000.63,0000.34
2024-01-10 08:19:00,SystemResetWarning,0813.2,4.99,000.00,018.6,017.1,000.0,027.2,020.0,13.2,0000.0,0001.53,0000.62,0000.33
2024-01-10 08:20:00,SystemResetWarning,0813.2,5.00,000.00,018.6,017.1,000.0,027.2,020.0,13.1,0000.0,0001.56,0000.60,0000.33
2024-01-10 08:21:00,SystemResetWarning,0813.2,5.00,000.00,018.6,017.1,000.0,027.2,020.0,12.9,0000.0,0001.51,0000.58,0000.34
2024-01-10 08:22:00,SystemResetWarning,0813.3,5.01,000.00,018.6,017.1,000.0,027.2,020.0,12.7,0000.0,0001.45,0000.56,0000.34
2024-01-10 08:23:00,SystemResetWarning,0813.2,5.00,000.00,018.6,017.0,000.0,027.2,020.0,12.6,0000.0,0001.49,0000.58,0000.34
2024-01-10 08:24:00,SystemResetWarning,0813.2,5.00,000.00,018.6,017.0,000.0,027.2,020.0,12.6,0000.0,0001.13,0000.56,0000.34
2024-01-10 08:25:00,SystemResetWarning,0813.2,5.01,000.00,018.6,017.1,000.0,027.2,020.1,12.6,0000.0,0001.05,0000.53,0000.33
2024-01-10 08:26:00,SystemResetWarning,0813.2,5.00,000.00,018.7,017.8,000.0,027.2,020.4,12.6,0000.0,0001.01,0000.51,0000.32
2024-01-10 08:27:00,SystemResetWarning,0813.2,5.00,000.00,018.8,018.6,000.0,027.2,020.7,12.5,0000.0,0001.04,0000.51,0000.32
2024-01-10 08:28:00,SystemResetWarning,0813.2,4.98,000.00,018.9,018.8,000.0,027.2,020.5,12.3,0000.0,0001.06,0000.51,0000.31
2024-01-10 08:29:00,SystemResetWarning,0813.1,5.00,000.00,018.9,018.6,000.0,027.2,020.3,12.3,0000.0,0001.00,0000.50,0000.30
2024-01-10 08:30:00,SystemResetWarning,0813.1,5.00,000.00,018.9,018.4,000.0,027.1,020.1,12.3,0000.0,0000.95,0000.48,0000.30
2024-01-10 08:31:00,SystemResetWarning,0813.2,5.00,000.00,018.8,018.2,000.0,027.1,020.0,12.3,0000.0,0000.87,0000.48,0000.30
2024-01-10 08:32:00,SystemResetWarning,0813.2,5.00,000.00,018.8,018.0,000.0,027.2,020.0,12.3,0000.0,0000.93,0000.50,0000.30
2024-01-10 08:33:00,SystemResetWarning,0813.2,5.00,000.00,018.8,017.9,000.0,027.2,020.0,12.3,0000.0,0001.10,0000.50,0000.30
2024-01-10 08:34:00,SystemResetWarning,0813.2,4.99,000.00,018.8,017.8,000.0,027.2,020.0,12.3,0000.0,0001.12,0000.48,0000.29
2024-01-10 08:35:00,SystemResetWarning,0813.2,5.00,000.00,018.7,017.6,000.0,027.2,020.0,12.3,0000.0,0001.09,0000.46,0000.29
2024-01-10 08:36:00,SystemResetWarning,0813.2,5.01,000.00,018.7,017.6,000.0,027.2,020.0,12.3,0000.0,0001.11,0000.47,0000.29
2024-01-10 08:37:00,SystemResetWarning,0813.3,5.00,000.00,018.7,017.5,000.0,027.2,020.0,12.3,0000.0,0001.08,0000.47,0000.29
2024-01-10 08:38:00,SystemResetWarning,0813.3,4.99,000.00,018.7,017.4,000.0,027.2,020.0,12.3,0000.0,0001.04,0000.46,0000.29
2024-01-10 08:39:00,SystemResetWarning,0813.3,4.99,000.00,018.7,017.4,000.0,027.2,020.0,12.3,0000.0,0001.30,0000.49,0000.29
2024-01-10 08:40:00,SystemResetWarning,0813.4,5.00,000.00,018.7,017.3,000.0,027.2,020.0,12.3,0000.0,0001.32,0000.49,0000.28
2024-01-10 08:41:00,SystemResetWarning,0813.3,5.00,000.00,018.7,017.3,000.0,027.2,020.0,12.2,0000.0,0001.27,0000.47,0000.28
2024-01-10 08:42:00,SystemResetWarning,0813.3,5.00,000.00,018.7,017.3,000.0,027.2,020.0,12.0,0000.0,0001.29,0000.48,0000.28
2024-01-10 08:43:00,SystemResetWarning,0813.3,5.00,000.00,018.7,017.3,000.0,027.2,020.0,12.0,0000.0,0001.31,0000.47,0000.27
2024-01-10 08:44:00,SystemResetWarning,0813.3,5.00,000.00,018.7,017.2,000.0,027.2,020.0,11.9,0000.0,0001.14,0000.47,0000.26
2024-01-10 08:45:00,SystemResetWarning,0813.3,5.00,000.00,018.7,017.2,000.0,027.2,020.0,11.9,0000.0,0001.12,0000.48,0000.26
2024-01-10 08:46:00,SystemResetWarning,0813.3,5.00,000.00,018.7,017.2,000.0,027.2,020.0,11.9,0000.0,0001.18,0000.51,0000.25
2024-01-10 08:47:00,SystemResetWarning,0813.4,5.00,000.00,018.6,017.1,000.0,027.2,020.0,11.9,0000.0,0001.19,0000.52,0000.25
2024-01-10 08:48:00,SystemResetWarning,0813.4,5.00,000.00,018.6,017.1,000.0,027.2,020.0,12.0,0000.0,0001.21,0000.52,0000.25
2024-01-10 08:49:00,SystemResetWarning,0813.3,5.00,000.00,018.6,017.1,000.0,027.2,020.0,12.1,0000.0,0001.20,0000.52,0000.25
2024-01-10 08:50:00,SystemResetWarning,0813.3,5.00,000.00,018.6,017.1,000.0,027.2,020.0,12.1,0000.0,0001.05,0000.52,0000.25
2024-01-10 08:51:00,SystemResetWarning,0813.3,5.01,000.00,018.6,017.1,000.0,027.2,020.0,12.2,0000.0,0001.01,0000.53,0000.25
2024-01-10 08:52:00,SystemResetWarning,0813.4,5.00,000.00,018.6,017.1,000.0,027.2,020.0,12.2,0000.0,0001.11,0000.58,0000.26
2024-01-10 08:53:00,SystemResetWarning,0813.4,5.00,000.00,018.6,017.1,000.0,027.2,020.0,12.3,0000.0,0001.07,0000.56,0000.25
2024-01-10 08:54:00,SystemResetWarning,0813.3,5.01,000.00,018.6,017.1,000.0,027.2,020.0,12.3,0000.0,0000.98,0000.54,0000.25
2024-01-10 08:55:00,SystemResetWarning,0813.4,5.00,000.00,018.7,017.5,000.0,027.2,020.3,12.3,0000.0,0001.05,0000.58,0000.26
2024-01-10 08:56:00,SystemResetWarning,0813.4,5.00,000.00,018.8,018.4,000.0,027.2,020.7,12.2,0000.0,0001.06,0000.58,0000.26
2024-01-10 08:57:00,SystemResetWarning,0813.3,4.99,000.00,018.9,018.8,000.0,027.2,020.6,12.2,0000.0,0001.03,0000.55,0000.26
2024-01-10 08:58:00,SystemResetWarning,0813.2,4.99,000.00,018.9,018.8,000.0,027.2,020.4,12.1,0000.0,0001.11,0000.55,0000.25
2024-01-10 08:59:00,SystemResetWarning,0813.2,5.00,000.00,018.9,018.6,000.0,027.2,020.3,12.1,0000.0,0001.18,0000.56,0000.25
